Flag for China Weather past 2 weeks in Tianjin, Tianjin Municipality, China

Now
36 °F

Haze.


Feels Like: 33 °F
Forecast: 28 / 41 °F
Wind: 3 mph from Southwest

Location: Tianjin / Zhangguizhu

Current Time: Dec 23, 2014 at 10:48:27 AM

Latest Report: Dec 23, 2014 at 10:00 AM


Visibility: 2 mi

Pressure: 30.18 "Hg

Humidity: 44%

Dew point: 16 °F

Location of TianjinLocation

Historic Weather in Tianjin — Graph

°F

Tianjin temperature yesterday

Maximum temperature yesterday: 48 °F (at 1:00 PM)
Minimum temperature yesterday: 23 °F (at 8:00 AM)
Average temperature yesterday: 36 °F

Past Weeks' High & Low Weather Summary

 TemperatureHumidityPressure
High48 °F (Dec 22, 1:00 PM)100% (Dec 10, 12:30 AM)30.63 "Hg (Dec 10, 12:30 AM)
Low21 °F (Dec 9, 4:30 AM)14% (Dec 21, 2:00 PM)30.15 "Hg (Dec 19, 4:00 AM)
Average31 °F41%30.38 "Hg
* Reported Dec 8 9:00 AM — Dec 23 9:30 AM, Tianjin, Weather by CustomWeather, © 2014

Note: Actual official high and low records may vary slightly from our data, if they occured in-between our weather recording intervals... More about our weather records

Advertising

Tianjin weather history for previous 24 hours

 ConditionsComfort  
Time TempWeatherWind HumidityBarometerVisibility
9:30 AM
Dec 23
34 °FHaze.3 mph44%30.18 "Hg2 mi
9:00 AM30 °FHaze.3 mph64%30.15 "Hg1 mi
8:30 AM27 °FHaze.3 mph69%30.15 "Hg1 mi
8:00 AM23 °FHaze.3 mph74%30.15 "Hg1 mi
7:30 AM27 °FHaze.1 mph64%30.15 "Hg2 mi
7:00 AM30 °FHaze.3 mph51%30.15 "Hg2 mi
6:30 AM30 °FHaze.1 mph51%30.15 "Hg2 mi
5:30 AM32 °FHaze.3 mph44%30.15 "Hg3 mi
5:00 AM32 °FHaze.3 mph44%30.15 "Hg3 mi
4:30 AM32 °FHaze.3 mph40%30.15 "Hg2 mi
4:00 AM28 °FHaze.1 mph51%30.18 "Hg2 mi
3:30 AM32 °FHaze.1 mph40%30.18 "Hg3 mi
3:00 AM32 °FHaze.1 mph40%30.18 "Hg3 mi
2:30 AM34 °FHaze.6 mph35%30.18 "Hg3 mi
2:00 AM36 °FHaze.8 mph32%30.21 "Hg3 mi
1:30 AM36 °FHaze.6 mph32%30.21 "Hg3 mi
1:00 AM37 °FHaze.8 mph30%30.21 "Hg3 mi
12:30 AM36 °FHaze.6 mph32%30.21 "Hg3 mi
12:00 AM37 °FHaze.8 mph30%30.21 "Hg3 mi
11:30 PM
Dec 22
37 °FHaze.6 mph30%30.21 "Hg3 mi
11:00 PM37 °FHaze.6 mph30%30.21 "Hg3 mi
10:30 PM37 °FHaze.6 mph33%30.21 "Hg3 mi
10:00 PM39 °FHaze.6 mph30%30.21 "Hg2 mi
9:30 PM34 °FHaze.3 mph41%30.21 "Hg2 mi
9:00 PM37 °FHaze.1 mph33%30.21 "Hg2 mi
8:30 PM39 °FHaze.3 mph30%30.21 "Hg2 mi
8:00 PM39 °FHaze.6 mph30%30.21 "Hg2 mi
7:30 PM37 °FHaze.6 mph33%30.21 "Hg2 mi
7:00 PM39 °FHaze.3 mph30%30.21 "Hg3 mi
6:30 PM37 °FHaze.3 mph33%30.21 "Hg3 mi
6:00 PM39 °FHaze.3 mph30%30.21 "Hg3 mi
5:30 PM41 °FHaze.1 mph28%30.21 "Hg3 mi
5:00 PM43 °FClear.3 mph24%30.21 "Hg4 mi
4:30 PM43 °FClear.1 mph22%30.21 "Hg4 mi
4:00 PM45 °FClear.3 mph21%30.21 "Hg5 mi
3:30 PM46 °FClear.3 mph20%30.21 "Hg5 mi
3:00 PM46 °FClear.6 mph21%30.21 "Hg4 mi
2:30 PM46 °FHaze.3 mph23%30.21 "Hg3 mi
2:00 PM46 °FHaze.6 mph21%30.21 "Hg3 mi
1:30 PM46 °FHaze.3 mph21%30.24 "Hg3 mi
1:00 PM48 °FHaze.1 mph20%30.24 "Hg2 mi
12:30 PM46 °FHaze.1 mph21%30.24 "Hg2 mi
11:30 AM41 °FHaze.3 mph26%30.27 "Hg2 mi
11:00 AM39 °FHaze.3 mph28%30.27 "Hg1 mi
10:30 AM36 °FHaze.1 mph32%30.30 "Hg1 mi
10:00 AM34 °FHaze.3 mph35%30.30 "Hg1 mi
Weather by CustomWeather, © 2014

See weather overviewHow to use our weather pages